Theta_e
284 283 283 283 283 283 283 283 283 283 282 281 279 278 277 277 277 276 276 276 276 275 275 275 275 274 274 274 273 273 272 272 271 271 271 271 270 270 270 270 270 269
284 283 284 283 283 284 284 283 283 283 282 282 281 280 279 278 277 277 276 276 276 276 275 275 275 274 274 273 273 272 272 272 271 272 271 270 270 270 270 270 270 269
284 283 283 283 283 283 283 283 283 283 283 283 282 281 280 279 277 277 276 276 276 276 275 275 274 274 274 273 273 272 272 271 271 271 271 271 271 271 271 271 270 269
284 284 283 283 283 283 283 283 283 283 283 283 282 282 281 280 278 277 276 276 275 275 275 275 274 274 274 273 273 272 272 272 272 271 271 271 271 271 271 271 270 269
284 284 284 284 283 283 283 283 282 282 282 283 282 281 281 279 278 277 276 276 275 275 275 275 274 274 273 273 273 272 272 272 272 271 271 271 271 271 271 270 269 268
284 284 284 284 283 283 283 282 282 282 282 282 282 282 281 280 278 277 276 275 275 275 275 274 274 274 273 273 273 272 272 272 272 272 271 271 271 271 270 270 269 268
284 284 284 284 283 283 282 282 282 282 282 282 282 282 281 280 279 277 276 275 275 275 275 274 274 274 273 273 272 272 272 272 272 272 271 271 271 270 270 269 269 268
284 284 284 283 283 282 282 282 282 282 282 281 281 281 281 280 278 277 276 275 275 275 275 274 274 273 273 273 272 272 272 272 271 271 271 270 271 270 270 269 268 267
284 283 283 283 282 282 282 282 282 281 281 281 281 280 280 279 277 277 276 276 275 275 275 274 274 273 273 273 272 272 271 271 271 271 271 270 270 269 269 269 268 267
283 283 283 282 282 282 282 281 281 281 281 281 281 280 279 278 277 277 276 276 275 275 274 274 273 273 273 273 272 272 272 271 271 271 271 270 270 270 269 269 268 267
283 283 282 282 282 282 281 281 281 280 280 280 280 279 278 277 277 276 276 275 274 274 274 273 273 273 273 272 272 272 272 272 271 271 271 270 270 270 270 269 267 266
283 283 282 282 282 281 281 281 280 280 279 278 279 278 277 276 276 275 275 274 274 274 274 273 273 273 273 272 272 272 272 272 271 271 271 270 270 270 269 269 267 267
283 283 283 282 281 281 280 279 279 278 278 277 278 278 277 275 275 275 275 274 274 274 274 273 273 273 272 272 272 272 271 271 271 271 270 270 270 269 269 268 267 267
283 282 282 281 280 280 279 278 278 277 277 277 277 277 276 275 275 275 274 274 274 274 274 273 273 272 272 272 272 272 271 271 271 270 270 269 269 269 268 267 267 266
281 280 280 280 279 278 277 277 277 277 277 276 276 276 276 275 275 274 273 273 273 273 273 273 273 272 272 272 271 271 271 270 270 270 269 268 268 267 267 266 266 266
280 280 280 278 276 275 275 275 275 276 276 275 275 275 274 274 274 274 273 273 272 273 273 272 272 272 273 273 273 271 270 270 270 269 269 268 267 265 265 265 265 265
278 277 276 276 276 275 275 274 276 275 274 274 273 273 273 273 273 273 272 272 272 272 272 272 272 272 274 276 276 275 271 270 269 268 268 267 265 264 264 264 264 264
276 276 275 275 275 275 274 274 274 273 273 273 272 272 272 272 272 272 272 272 272 272 271 271 271 273 275 276 276 276 274 269 268 267 266 265 263 263 263 264 264 263
276 276 274 274 274 274 273 273 273 273 272 272 271 272 271 271 272 271 271 271 271 271 270 271 270 273 276 276 276 276 276 272 267 267 265 263 262 262 262 263 263 263
275 275 274 273 273 273 272 272 272 272 272 271 270 270 270 270 270 271 270 270 270 270 270 269 269 272 275 276 276 277 277 274 266 266 265 263 263 262 263 262 263 262
275 273 273 272 272 271 271 271 271 270 270 270 269 269 270 269 269 269 269 269 269 269 269 268 268 272 275 276 276 276 276 276 268 266 265 265 264 264 264 264 263 263
272 272 272 272 271 271 270 270 269 269 268 268 268 268 268 268 268 268 268 268 268 268 268 267 267 273 274 275 276 276 276 272 270 268 267 266 266 265 265 265 264 264
272 271 271 271 270 270 269 268 268 267 267 267 267 267 267 266 267 266 267 267 267 267 266 266 266 271 274 274 275 275 274 270 268 267 267 266 266 266 266 266 266 265
271 271 270 269 268 267 266 266 266 266 266 267 267 266 266 266 266 266 266 266 266 265 265 265 265 267 272 273 274 274 273 268 266 265 265 265 264 264 264 264 265 267
269 269 269 268 266 266 265 265 264 265 265 266 266 265 265 266 266 265 265 265 265 265 266 265 264 265 270 272 273 273 271 269 267 266 265 264 264 264 264 264 264 266
267 267 267 266 265 265 265 265 265 265 265 265 265 265 265 265 265 265 264 264 264 264 264 265 263 263 265 270 271 272 272 269 266 266 265 264 264 263 263 263 263 263
Wind_Speed
15 14 16 15 15 14 14 15 15 15 14 13 14 14 14 13 13 15 16 15 15 15 15 15 14 14 13 13 13 11 11 12 11 10 11 10 9 11 11 12 11 9
18 17 15 14 14 14 15 15 15 14 14 14 13 12 12 12 15 15 16 16 15 16 15 15 15 15 14 13 13 13 11 11 12 9 11 12 10 10 11 12 11 9
17 16 18 18 17 17 17 15 14 14 14 14 13 12 12 12 14 14 15 16 15 15 15 15 15 15 14 13 13 12 12 12 12 11 11 12 10 9 8 9 9 11
18 18 17 18 17 17 15 14 14 14 13 13 14 13 11 10 13 15 15 16 15 15 15 14 15 14 14 14 13 12 12 12 11 11 11 10 10 9 8 8 10 9
17 16 16 16 16 16 14 14 16 15 15 15 13 11 12 11 12 14 14 15 15 14 14 14 14 13 13 13 13 12 12 11 11 12 11 11 10 11 10 11 11 11
14 14 15 15 15 14 14 16 16 15 15 14 15 12 11 12 12 13 14 15 14 14 14 14 14 14 14 13 13 12 12 11 11 13 12 11 9 10 9 10 11 11
14 13 15 14 14 14 15 15 15 14 14 14 11 12 11 12 12 13 14 14 14 14 15 15 15 14 13 13 13 13 12 13 12 13 14 11 10 10 12 11 11 11
14 12 12 12 13 13 14 14 14 14 13 10 12 12 11 12 12 11 12 14 14 15 15 15 15 15 14 14 14 14 14 10 12 13 13 12 11 13 12 11 10 10
11 11 11 12 13 12 13 14 13 12 10 12 12 11 10 11 11 11 12 13 14 14 14 14 15 15 14 14 14 15 14 12 12 13 13 13 13 13 13 12 12 11
10 11 11 12 12 12 13 12 11 10 10 11 11 10 10 9 10 12 12 13 14 14 15 15 15 14 14 14 15 14 14 14 13 13 13 13 13 13 13 12 12 11
10 10 11 12 12 11 12 11 11 10 9 11 10 10 9 9 9 10 12 13 14 15 15 15 15 15 15 14 13 13 13 13 12 12 12 12 12 12 12 12 11 12
10 10 11 12 11 10 11 10 9 9 9 8 9 10 9 9 10 10 12 13 13 14 14 14 14 14 15 14 14 13 13 12 12 12 12 12 11 11 11 11 11 11
9 10 10 9 9 9 8 7 8 8 8 8 8 9 10 10 10 11 10 12 13 12 13 14 13 13 13 13 13 13 12 13 12 12 11 10 10 10 10 10 10 10
8 7 7 7 6 6 6 6 6 6 7 6 7 9 10 10 11 12 10 10 12 12 12 11 12 12 12 12 12 12 12 13 12 11 11 10 10 10 10 10 9 9
5 5 4 4 4 4 5 5 5 5 6 6 7 8 7 9 9 10 10 10 10 11 11 11 12 12 11 12 12 13 12 12 12 11 11 10 9 9 8 8 8 8
3 1 0 1 3 4 4 4 4 5 5 6 6 7 6 7 8 8 9 10 11 10 11 11 11 10 11 18 16 12 12 10 10 10 10 10 10 9 8 8 9 8
1 1 1 1 2 2 3 4 4 4 4 5 5 5 6 6 7 8 9 10 11 11 11 11 10 9 17 22 23 21 13 10 10 10 9 9 9 10 9 9 8 8
1 1 1 0 2 2 3 3 3 4 4 5 5 5 5 5 7 9 9 9 9 10 10 10 10 11 21 24 25 25 18 10 9 9 8 8 8 9 8 8 8 7
1 0 1 1 2 2 2 3 3 3 4 4 6 5 4 7 8 7 8 8 8 10 10 9 8 14 22 25 24 24 23 16 8 9 8 8 7 8 8 8 7 7
1 0 1 1 2 2 2 3 3 5 4 4 4 4 6 6 5 7 7 8 9 9 8 7 8 12 22 23 23 23 22 18 9 10 9 8 9 9 8 9 9 9
1 1 1 1 2 2 2 3 4 3 3 3 4 5 6 7 7 7 7 7 7 7 7 7 7 15 21 22 21 22 22 18 9 10 9 10 10 11 11 11 11 11
1 1 1 1 2 2 3 3 3 3 4 3 3 3 3 3 3 4 6 6 6 7 6 7 6 17 20 21 21 20 21 11 7 8 10 10 11 11 12 11 11 11
1 1 2 2 3 3 3 3 3 3 3 3 4 4 4 4 4 4 4 5 6 6 7 6 5 12 19 20 19 20 16 7 6 6 6 7 8 8 10 10 11 11
0 1 2 2 3 4 3 3 2 2 3 3 5 4 4 4 4 4 4 4 6 6 6 6 6 8 16 18 19 20 16 8 5 6 6 7 5 6 6 6 9 16
1 1 1 2 3 3 3 3 3 3 2 2 3 3 3 3 4 4 3 3 4 5 6 6 5 7 14 17 19 19 15 7 7 7 8 7 7 7 6 7 8 11
1 1 1 2 3 2 1 2 2 3 3 3 3 3 4 3 3 4 4 3 4 4 5 6 6 6 8 17 17 19 20 11 5 7 8 9 9 9 9 7 7 7
Wind_Direction
223 221 226 226 227 225 226 223 222 220 216 209 208 207 204 203 195 196 198 196 198 197 194 193 191 189 189 188 187 186 189 191 190 189 191 191 194 189 190 189 190 186
223 222 225 227 231 227 227 225 225 224 223 216 214 209 204 196 198 195 197 197 198 200 196 194 192 191 188 188 186 186 187 187 190 186 188 191 193 193 198 193 192 187
223 223 223 224 227 228 227 226 226 225 226 222 216 210 206 198 196 194 196 197 198 200 198 196 193 191 189 188 187 187 188 186 186 185 184 191 188 191 189 191 195 194
224 223 224 227 228 230 227 228 228 227 228 226 219 213 205 198 195 194 195 196 198 199 199 196 194 191 190 189 186 190 189 189 184 182 183 190 191 184 184 186 196 197
224 225 225 226 228 228 228 227 227 226 226 227 225 212 206 199 194 195 193 195 197 198 195 196 192 191 188 189 187 189 188 188 184 184 185 190 190 189 192 190 194 196
226 224 225 225 226 225 225 226 227 226 227 227 224 216 209 200 197 194 192 192 195 194 193 193 193 191 188 188 188 192 189 188 189 184 190 186 183 187 189 191 192 195
227 224 226 224 225 222 224 226 227 226 225 225 222 220 209 205 200 194 191 190 189 192 192 191 192 190 188 187 190 191 191 190 189 186 190 192 184 188 190 195 193 195
229 227 226 223 224 222 223 225 224 223 223 219 219 220 210 208 199 189 186 186 189 192 192 191 191 189 187 187 191 190 191 185 189 188 191 194 191 196 194 195 195 195
230 228 224 223 222 223 223 224 223 223 215 216 218 215 209 202 192 185 183 185 190 191 191 190 190 189 188 189 191 189 189 186 186 190 192 195 197 196 195 192 194 197
230 228 224 221 221 222 223 222 220 218 210 213 215 208 202 196 183 184 183 186 189 189 190 191 189 189 189 190 191 188 188 188 187 192 196 198 200 198 195 193 193 194
233 227 225 223 222 221 221 218 215 213 208 210 207 204 195 184 185 182 185 185 189 190 189 189 190 187 189 189 189 189 189 190 192 195 198 199 199 199 197 196 195 194
233 230 226 224 222 221 218 213 209 206 203 201 195 198 187 183 182 184 186 190 190 191 189 190 188 188 189 189 187 187 189 193 195 196 198 199 200 199 199 197 196 196
235 232 227 224 220 217 209 201 198 195 189 190 190 192 186 186 188 187 191 190 192 188 191 188 187 188 188 187 186 187 190 192 196 198 197 197 202 200 200 198 195 194
242 235 227 222 213 202 194 188 181 180 185 185 180 193 193 189 188 190 190 188 194 191 191 186 186 188 189 188 188 189 190 195 194 196 197 199 199 200 198 199 195 193
254 242 232 213 188 169 168 169 172 174 178 181 188 194 191 188 185 184 184 188 189 191 188 188 190 192 190 188 187 192 192 193 193 193 196 198 200 198 197 194 195 196
269 258 102 108 129 147 152 156 166 173 175 176 182 184 179 180 179 182 184 186 187 190 191 191 195 196 190 190 190 188 189 189 190 194 195 197 197 196 197 194 196 196
32 44 75 84 109 121 141 152 165 161 161 168 172 174 177 176 178 181 187 190 191 190 192 195 195 196 191 196 198 191 184 187 189 195 195 196 194 192 194 194 197 199
21 43 85 93 112 140 133 134 135 149 167 168 168 178 183 173 184 192 190 190 192 193 194 195 194 189 196 203 203 201 189 185 192 195 195 194 190 191 193 191 196 199
348 111 149 149 138 135 127 135 151 163 178 178 191 188 169 184 196 187 191 188 188 191 194 193 189 190 198 202 203 204 202 188 192 192 192 192 187 190 188 194 195 204
304 225 140 137 116 123 124 158 172 195 198 190 176 169 186 193 192 190 186 188 191 193 190 184 183 190 200 203 205 208 211 202 178 191 193 192 193 192 197 200 204 208
313 86 92 95 109 130 154 187 197 198 188 184 177 188 188 192 191 189 191 188 189 188 181 182 181 192 201 206 209 215 219 222 170 189 196 201 202 201 203 205 209 213
70 74 108 129 153 167 184 201 195 191 184 165 166 180 180 171 192 182 185 183 185 180 177 184 185 196 206 210 217 220 223 227 211 187 192 196 198 199 203 207 206 206
85 142 183 189 196 193 206 203 186 180 170 154 169 173 175 180 183 179 172 172 173 175 182 189 188 207 213 220 223 228 231 232 219 211 207 202 204 195 197 200 204 206
316 207 214 216 206 213 212 203 178 174 177 172 177 173 179 175 161 150 164 170 178 185 187 191 197 215 222 227 230 233 235 228 218 214 219 216 213 209 208 217 219 221
339 322 240 224 231 227 200 193 186 182 161 137 158 143 158 141 153 152 153 163 182 193 193 197 205 218 227 233 237 240 240 231 217 216 223 222 219 227 222 224 229 231
0 327 298 234 238 224 184 184 157 137 145 142 149 137 141 139 148 156 173 183 175 175 201 199 204 216 226 237 242 244 243 236 206 214 223 220 219 223 229 228 222 226